sat.trackr.live / text

‹ back to catalog

GALAXY 34 (G-34)

NORAD 54027 · 2022-128B

PAYLOAD ACTIVE UNKNOWN

§ Identity

Operator
Country
ITSO
Launch date
2022-10-08
Launch site
AFETR
Launch vehicle
Mass (kg)
RCS (m²)

Purposes: comms

External: N2YO · Heavens-Above · Gunter

§ Orbital elements

Epoch: 2026-05-24T23:42:27.946080Z

Period
1,436.09 min
Inclination
0.0106°
Eccentricity
0.0001708
Mean motion
1.00272565 rev/d
Perigee alt
35,779.2 km
Apogee alt
35,793.6 km
Semi-major
42,164.5 km
B*
0.0000e+0
RAAN
1.6369°
Arg perigee
78.4431°
Mean anomaly
29.1280°
Rev number
1,368

§ Raw data

GALAXY 34 (G-34)1 54027U 22128B   26144.98782345  .00000000  00000+0  00000+0 0  99942 54027   0.0106   1.6369 0001708  78.4431  29.1280  1.00272565 13683

JSON: /api/v1/satellites/54027 · /tle

For live sub-satellite position, see the globe view (requires WebGL).

§ Visibility from observer

Set your observer location to see the next 7 days of passes ≥ 10°. The values pass through the URL so the page stays shareable.

No JS? Fill the form by hand. The geolocation button needs JavaScript.